Weerstation Grootegast  Weerstation Grootegast


15 daagse weersverwachting Murcia (ES)

  • Overzicht
  • Per uur
  • 15 dagen
  • Extra
  • Vergelijk
  • Kaarten
  • Dagkaart
  • Meer »
  • Info
  • Statistieken
  • Directe link
    Temp 6h Neerslag Wind  
 07:52     20:26    Daglengte: 12:34 Vandaag
08:00
10°
 
1
14:00
17°
 
5
20:00
12°
 
6
 07:50     20:27    Daglengte: 12:37 Morgen
02:00
11°
0.2 mm
4
08:00
11°
4.0 mm
2
14:00
16°
1.2 mm
4
20:00
15°
0.5 mm
2
 07:49     20:28    Daglengte: 12:39 Woensdag 01 Apr
02:00
12°
 
1
08:00
12°
4.6 mm
1
14:00
18°
4.6 mm
1
20:00
16°
2.6 mm
3
 07:47     20:29    Daglengte: 12:42 Donderdag 02 Apr
02:00
11°
7.9 mm
1
Locatie info
Region: Región de Murcia
Latitude: 37.9831°N
Longitude: -1.1314°E
53 masl
Postcode: 30004
Temp/Neerslag /Baro Onweer/Dauwpunt
    Temp Baro 1h Neerslag Dauwpunt Wind UV Bewolking  
 07:52     20:26    Daglengte: 12:34 Vandaag
06:00
10°
1012.0 hPa   6.2°
1
Windvlaag: 0.6 m/s
65%
07:00
10°
Voelt als: 9.8°
1011.9 hPa   6.4°
1
Windvlaag: 0.6 m/s
47%
08:00
10°
Voelt als: 9.6°
1011.9 hPa   6.5°
1
Windvlaag: 0.7 m/s
45%
09:00
11°
1012.0 hPa   6.2°
1
Windvlaag: 0.6 m/s
48%
10:00
12°
1012.1 hPa
14%
6.2°
1
Windvlaag: 0.7 m/s
45%
11:00
14°
1012.5 hPa   7.3°
1
Windvlaag: -0.3 m/s
45%
12:00
15°
1012.4 hPa   8.3°
2
Windvlaag: -0.8 m/s
48%
13:00
17°
1012.0 hPa   8.8°
4
Windvlaag: -0.7 m/s
75%
14:00
17°
1011.5 hPa   9.8°
5
Windvlaag: -0.7 m/s
62%
15:00
17°
1010.9 hPa   10.9°
6
Windvlaag: -0.1 m/s
78%
16:00
16°
1010.5 hPa
37%
10.2°
7
Windvlaag: -0 m/s
85%
17:00
15°
1010.2 hPa
51%
9.5°
7
Windvlaag: 0.3 m/s
89%
18:00
14°
1010.3 hPa
33%
9.0°
7
Windvlaag: 0.2 m/s
91%
19:00
13°
1010.4 hPa
34%
8.6°
6
Windvlaag: 0.4 m/s
88%
20:00
12°
1010.6 hPa
34%
8.3°
6
Windvlaag: 0.3 m/s
85%
21:00
12°
1010.7 hPa
33%
8.1°
6
Windvlaag: 0.6 m/s
87%
22:00
11°
1011.2 hPa
37%
8.3°
6
Windvlaag: 0.7 m/s
89%
23:00
11°
1011.3 hPa
51%
8.4°
5
Windvlaag: 0.9 m/s
91%
 07:50     20:27    Daglengte: 12:37 Morgen
00:00
11°
1011.2 hPa
51%
8.5°
5
Windvlaag: 1.1 m/s
91%
01:00
11°
1010.9 hPa
82%
8.7°
5
Windvlaag: 1.4 m/s
89%
02:00
11°
1010.3 hPa 0.2 mm
82%
8.9°
4
Windvlaag: 1.4 m/s
85%
03:00
11°
1009.7 hPa 0.3 mm
82%
9.2°
4
Windvlaag: 1.3 m/s
90%
04:00
11°
1009.2 hPa 0.6 mm
82%
9.4°
3
Windvlaag: 0.4 m/s
89%
05:00
11°
1008.7 hPa 0.6 mm
82%
9.4°
3
Windvlaag: 0.3 m/s
83%
06:00
11°
1008.2 hPa 0.5 mm
82%
9.3°
3
Windvlaag: 0.4 m/s
83%
07:00
11°
1008.2 hPa 0.7 mm
82%
9.3°
2
Windvlaag: 0.6 m/s
90%
08:00
11°
1008.3 hPa 1.2 mm
82%
9.3°
2
Windvlaag: 0.3 m/s
90%
09:00
11°
1008.5 hPa 0.8 mm
82%
9.4°
2
Windvlaag: 0.6 m/s
87%
10:00
12°
1008.8 hPa 0.5 mm
82%
9.7°
3
Windvlaag: 0.9 m/s
89%
11:00
13°
1009.1 hPa
78%
10.1°
3
Windvlaag: 0.7 m/s
87%
12:00
14°
1009.0 hPa
20%
10.7°
3
Windvlaag: 1.1 m/s
82%
13:00
15°
1008.6 hPa
15%
11.3°
4
Windvlaag: 0.5 m/s
88%
14:00
16°
1008.3 hPa
59%
12.1°
4
Windvlaag: -0.1 m/s
67%
15:00
16°
1007.9 hPa
27%
12.8°
3
Windvlaag: 1 m/s
75%
16:00
16°
1007.6 hPa
75%
12.7°
3
Windvlaag: 1 m/s
61%
17:00
16°
1007.1 hPa 0.2 mm
77%
12.8°
3
Windvlaag: 1.6 m/s
56%
18:00
16°
1007.1 hPa 0.3 mm
74%
12.3°
3
Windvlaag: 2.1 m/s
35%
19:00
16°
1007.6 hPa
50%
12.0°
2
Windvlaag: 1.7 m/s
39%
20:00
15°
1008.1 hPa
17%
12.2°
2
Windvlaag: 1.4 m/s
50%
21:00
14°
1008.8 hPa
17%
12.3°
2
Windvlaag: 1 m/s
28%
22:00
14°
1009.8 hPa
14%
12.1°
1
Windvlaag: 0.8 m/s
25%
23:00
13°
1010.6 hPa
21%
11.9°
1
Windvlaag: 1 m/s
81%
 07:49     20:28    Daglengte: 12:39 Woensdag 01 Apr
00:00
12°
1011.1 hPa
22%
11.9°
1
Windvlaag: 1 m/s
74%
01:00
12°
1011.2 hPa
24%
12.1°
1
Windvlaag: 0.4 m/s
95%
02:00
12°
1010.8 hPa
30%
12.1°
1
Windvlaag: 0.8 m/s
100%
03:00
12°
1010.6 hPa
38%
12.1°
1
Windvlaag: 0.8 m/s
100%
04:00
12°
1010.3 hPa
85%
11.9°
1
Windvlaag: 0.7 m/s
100%
05:00
12°
1010.2 hPa
95%
11.7°
2
Windvlaag: 0.6 m/s
97%
06:00
12°
1010.1 hPa 0.6 mm
100%
11.6°
2
Windvlaag: 0.4 m/s
97%
07:00
12°
1010.4 hPa 1.5 mm
100%
11.6°
1
Windvlaag: 0.2 m/s
95%
08:00
12°
1011.0 hPa 2.5 mm
100%
11.8°
1
Windvlaag: 0.3 m/s
94%
09:00
12°
1010.7 hPa 1.5 mm
100%
11.9°
1
Windvlaag: 0.1 m/s
69% warningclass
10:00
13°
1011.3 hPa 0.7 mm
100%
12.3°
1
Windvlaag: 0.5 m/s
84%
11:00
14°
1011.7 hPa 0.5 mm
100%
12.5°
2
Windvlaag: 0.5 m/s
85%
12:00
15°
1012.0 hPa 0.5 mm
100%
12.1°
2
Windvlaag: 0.5 m/s
54%
13:00
16°
1011.8 hPa 0.8 mm
100%
11.1°
1
Windvlaag: 0.6 m/s
17%
14:00
18°
1011.2 hPa 0.5 mm
100%
10.1°
1
Windvlaag: 0.6 m/s
27%
15:00
18°
1010.7 hPa 0.5 mm
100%
9.5°
2
Windvlaag: 0.6 m/s
29%
16:00
19°
1009.9 hPa
98%
8.7°
1
Windvlaag: 0.5 m/s
15%
17:00
19°
1009.2 hPa
100%
7.8°
1
Windvlaag: 0.6 m/s
17%
18:00
19°
1009.0 hPa 0.7 mm
100%
7.5°
2
Windvlaag: 0.8 m/s
25%
19:00
18°
1009.1 hPa 0.7 mm
99%
8.8°
3
Windvlaag: 0.8 m/s
12%
20:00
16°
1009.6 hPa 0.8 mm
100%
8.5°
3
Windvlaag: 0.9 m/s
33%
21:00
15°
1010.2 hPa 1.2 mm
100%
9.0°
2
Windvlaag: 5.1 m/s
36% warningclass
22:00
14°
1010.8 hPa 0.8 mm
100%
9.4°
2
Windvlaag: 7.3 m/s
37%
23:00
13°
1011.2 hPa 2.4 mm
100%
9.5°
2
Windvlaag: 7 m/s
36% warningclass
 07:47     20:29    Daglengte: 12:42 Donderdag 02 Apr
00:00
12°
1011.6 hPa 1.9 mm
100%
9.7°
2
Windvlaag: 7.4 m/s
35%
01:00
11°
1011.7 hPa 0.8 mm
100%
9.7°
2
Windvlaag: 7.2 m/s
28%
02:00
11°
1011.7 hPa 0.7 mm
100%
9.7°
1
Windvlaag: 0.6 m/s
35%
03:00
10°
Voelt als: 9.3°
1011.2 hPa 1.8 mm
100%
8.2°
2
Windvlaag: 5.4 m/s
22%
04:00
Voelt als: 8.9°
1011.1 hPa 1.8 mm
100%
7.2°
2
Windvlaag: 5.7 m/s
22%
05:00
Voelt als: 8.5°
1011.0 hPa 1.9 mm
100%
6.3°
2
Windvlaag: 4.6 m/s
19%
Temp/Neerslag /Baro Onweer/Dauwpunt
    Temp Baro Neerslag Dauwpunt Wind Bewolking  
 07:52     20:26    Daglengte: 12:34 Vandaag
08:00
10°
Voelt als: 9.6°
1011.9 hPa   6.5°
1
45%
11:00
14°
1012.5 hPa   7.3°
1
45%
14:00
17°
1011.5 hPa   9.8°
5
62%
17:00
15°
1010.2 hPa   9.5°
7
89%
20:00
12°
1010.6 hPa   8.3°
6
85%
23:00
11°
1011.3 hPa   8.4°
5
91%
 07:50     20:27    Daglengte: 12:37 Morgen
02:00
11°
1010.3 hPa 0.2 mm 8.9°
4
85%
05:00
11°
1008.7 hPa 1.5 mm 9.4°
3
83%
08:00
11°
1008.3 hPa 2.5 mm 9.3°
2
90%
11:00
13°
1009.1 hPa 1.2 mm 10.1°
3
87%
14:00
16°
1008.3 hPa   12.1°
4
67%
17:00
16°
1007.1 hPa 0.2 mm 12.8°
3
56%
20:00
15°
1008.1 hPa 0.3 mm 12.2°
2
50%
23:00
13°
1010.6 hPa   11.9°
1
81%
 07:49     20:28    Daglengte: 12:39 Woensdag 01 Apr
02:00
12°
1010.8 hPa   12.1°
1
100%
05:00
12°
1010.2 hPa   11.7°
2
97%
08:00
12°
1011.0 hPa 4.6 mm 11.8°
1
94%
11:00
14°
1011.7 hPa 2.7 mm 12.5°
2
85%
14:00
18°
1011.2 hPa 1.8 mm 10.1°
1
27%
17:00
19°
1009.2 hPa 0.5 mm 7.8°
1
17%
20:00
16°
1009.6 hPa 2.1 mm 8.5°
3
33%
23:00
13°
1011.2 hPa 4.5 mm 9.5°
2
36% warningclass
 07:47     20:29    Daglengte: 12:42 Donderdag 02 Apr
02:00
11°
1011.7 hPa 3.4 mm 9.7°
1
35%
05:00
Voelt als: 8.5°
1011.0 hPa 5.5 mm 6.3°
2
19%
08:00
Voelt als: 6.8°
1010.9 hPa 5.7 mm 3.3°
2
6%
11:00
14°
1010.8 hPa 15.6 mm 4.4°
1
61%
14:00
16°
1010.5 hPa 17.1 mm 4.3°
1
91%
17:00
15°
1010.4 hPa 18.0 mm 6.5°
1
91%
20:00
13°
1010.5 hPa 18.3 mm 7.7°
1
92%
23:00
12°
1011.6 hPa 18.3 mm 8.7°
1
56%
 07:46     20:29    Daglengte: 12:43 Vrijdag 03 Apr
02:00
10°
1012.4 hPa 18.3 mm 9.2°
1
19%
05:00
Voelt als: 8.2°
1013.0 hPa 18.3 mm 7.5°
2
16%
08:00
Voelt als: 6.2°
1013.8 hPa 18.3 mm 5.9°
2
13%
11:00
12°
1014.5 hPa 19.1 mm 6.7°
2
31%
14:00
17°
1015.1 hPa 20.1 mm 6.2°
1
49%
17:00
16°
1015.4 hPa 20.8 mm 7.4°
2
46%
20:00
14°
1015.7 hPa 21.0 mm 8.2°
2
42%
23:00
11°
1016.6 hPa 21.0 mm 7.9°
2
23%
 07:44     20:30    Daglengte: 12:46 Zaterdag 04 Apr
02:00
Voelt als: 8.0°
1017.4 hPa 21.0 mm 7.3°
1
4%
05:00
Voelt als: 7.2°
1017.2 hPa 21.0 mm 6.9°
2
48%
08:00
Voelt als: 6.5°
1017.0 hPa 21.0 mm 6.4°
2
92%
11:00
12°
1016.7 hPa 21.2 mm 7.9°
3
72%
14:00
17°
1016.4 hPa 22.2 mm 8.5°
5
53%
17:00
15°
1016.2 hPa 22.9 mm 9.6°
4
71%
20:00
14°
1016.1 hPa 25.9 mm 10.2°
3
89%
23:00
12°
1016.9 hPa 28.8 mm 10.1°
2
90%
 07:43     20:31    Daglengte: 12:48 Zondag 05 Apr
02:00
11°
1017.6 hPa 31.2 mm 9.9°
1
91%
05:00
10°
1017.4 hPa 33.9 mm 8.9°
1
91%
08:00
10°
1017.3 hPa 39.3 mm 7.8°
2
91%
11:00
13°
1017.8 hPa 40.5 mm 8.3°
3
91%
14:00
16°
1018.4 hPa 40.5 mm 8.0°
3
92%
17:00
15°
1018.2 hPa 40.5 mm 8.8°
3
90%
20:00
14°
1018.0 hPa 40.5 mm 9.2°
2
88%
23:00
12°
1019.1 hPa 41.5 mm 9.1°
2
72%
 07:41     20:32    Daglengte: 12:51 Maandag 06 Apr
02:00
10°
Voelt als: 8.8°
1020.1 hPa 42.4 mm 8.5°
2
57%
05:00
Voelt als: 7.8°
1020.3 hPa   7.6°
2
32%
08:00
Voelt als: 6.6°
1020.5 hPa 84.9 mm 6.6°
2
6%
14:00
20°
1020.9 hPa 84.9 mm 6.1°
1
0%
20:00
16°
1020.3 hPa 84.9 mm 9.6°
2
1%
 07:40     20:33    Daglengte: 12:53 Dinsdag 07 Apr
02:00
10°
Voelt als: 9.9°
1022.2 hPa 85.0 mm 9.3°
1
13%
08:00
Voelt als: 8.8°
1021.8 hPa 85.0 mm 8.5°
2
2%
14:00
21°
1021.9 hPa 85.6 mm 7.9°
2
73%
20:00
17°
1020.0 hPa 86.4 mm 9.4°
2
67%
 07:38     20:34    Daglengte: 12:56 Woensdag 08 Apr
02:00
10°
1021.4 hPa 86.7 mm 9.2°
1
88%
08:00
10°
Voelt als: 9.1°
1020.0 hPa 87.0 mm 9.3°
2
87%
14:00
18°
1024.7 hPa 87.5 mm 10.2°
6
1%
20:00
16°
1023.6 hPa 88.0 mm 10.4°
4
1%
 07:37     20:35    Daglengte: 12:58 Donderdag 09 Apr
02:00
16°
1020.9 hPa   12.3°
1
41%
08:00
15°
1019.5 hPa   11.7°
1
34%
14:00
23°
1019.8 hPa   11.7°
1
41%
20:00
21°
1018.0 hPa 0.3 mm 12.4°
1
49%
 07:36     20:36    Daglengte: 13:00 Vrijdag 10 Apr
02:00
17°
1019.9 hPa 0.3 mm 11.8°
2
45%
08:00
15°
1020.0 hPa 0.3 mm 10.8°
2
29%
14:00
22°
1020.8 hPa 0.1 mm 10.0°
1
37%
20:00
20°
1019.0 hPa 0.5 mm 11.7°
2
31%
 07:34     20:37    Daglengte: 13:03 Zaterdag 11 Apr
02:00
15°
1020.5 hPa   11.5°
1
26%
08:00
14°
1019.5 hPa   10.3°
2
23%
14:00
22°
1019.7 hPa   9.2°
1
24%
20:00
20°
1017.6 hPa 0.1 mm 10.6°
2
21%
 07:33     20:38    Daglengte: 13:05 Zondag 12 Apr
02:00
15°
1018.3 hPa   10.8°
1
25%
08:00
14°
1016.9 hPa 0.4 mm 10.0°
2
28%
14:00
21°
1016.4 hPa 0.3 mm 9.3°
2
30%
20:00
20°
1014.6 hPa 0.1 mm 10.6°
2
31%
 07:31     20:39    Daglengte: 13:08 Maandag 13 Apr
02:00
15°
1015.9 hPa   10.7°
1
34%
08:00
14°
1015.2 hPa   9.8°
1
29%
14:00
22°
1015.3 hPa   9.0°
1
26%
20:00
20°
1013.6 hPa 0.3 mm 10.6°
2
33%
 07:30     20:40    Daglengte: 13:10 Dinsdag 14 Apr
02:00
16°
1014.6 hPa 0.2 mm 11.1°
1
30%
  CAPE Lifted Index Hail Supercell Tornado SRH 3km CL BTM PRES CL TOP PRES Swiss DWD icon SMHI TS
 07:52     20:26    Daglengte: 12:34 Vandaag
06:00 0 J/kg 2.1 K 0 % 0 % 0 % 0 m²/s² 0 0 3.6 3
07:00 0 J/kg 1.9 K 0 % 0 % 0 % 0 m²/s² 0 0 3.13 3
08:00 0 J/kg 1.7 K 0 % 0 % 0 % 0 m²/s² 0 0 2.6 2
09:00 0 J/kg 2.0 K 0 % 0 % 0 % 0 m²/s² 0 0 2.93 2
10:00 0 J/kg 2.0 K 0 % 0 % 0 % 0 m²/s² 0 0 2.93 3
11:00 0 J/kg 1.8 K 0 % 0 % 0 % 0 m²/s² 0 0 2.73 3
12:00 28 J/kg 1.0 K 0 % 0 % 0 % 0 m²/s² 0 0 2.17 3
13:00 156 J/kg -0.1 K 0 % 0 % 0 % 0 m²/s² 0 0 1.46 3
14:00 215 J/kg -0.6 K 0 % 0 % 0 % 0 m²/s² 0 0 1.32 3
15:00 63 J/kg 0.3 K 0 % 0 % 0 % 0 m²/s² 0 0 2.1 3
16:00 0 J/kg 0.9 K 0 % 0 % 0 % 0 m²/s² 0 0 3.15 3
17:00 0 J/kg 0.7 K 0 % 0 % 0 % 0 m²/s² 0 0 2.29 61
18:00 0 J/kg 0.9 K 0 % 0 % 0 % 0 m²/s² 0 0 3.36 3
19:00 0 J/kg 1.7 K 0 % 0 % 0 % 0 m²/s² 0 0 3.23 3
20:00 0 J/kg 2.5 K 0 % 0 % 0 % 0 m²/s² 0 0 3.04 3
21:00 0 J/kg 2.9 K 0 % 0 % 0 % 0 m²/s² 0 0 3.44 3
22:00 1 J/kg 3.3 K 0 % 0 % 0 % 0 m²/s² 0 0 4.2 3
23:00 0 J/kg 3.6 K 0 % 0 % 0 % 0 m²/s² 0 0 4.86 3
 07:50     20:27    Daglengte: 12:37 Morgen
00:00 0 J/kg 3.7 K 0 % 0 % 0 % 0 m²/s² 0 0 4.24 80
01:00 0 J/kg 3.5 K 0 % 0 % 0 % 0 m²/s² 0 0 4.22 61
02:00 0 J/kg 3.3 K 0 % 0 % 0 % 0 m²/s² 0 0 4.5 61
03:00 0 J/kg 3.4 K 0 % 0 % 0 % 0 m²/s² 0 0 4.87 61
04:00 0 J/kg 3.3 K 0 % 0 % 0 % 0 m²/s² 0 0 4.62 61
05:00 0 J/kg 3.0 K 0 % 0 % 0 % 0 m²/s² 0 0 4.53 61
06:00 0 J/kg 2.9 K 0 % 0 % 0 % 0 m²/s² 0 0 4.37 61
07:00 0 J/kg 2.9 K 0 % 0 % 0 % 0 m²/s² 0 0 3.23 61
08:00 0 J/kg 3.3 K 0 % 0 % 0 % 0 m²/s² 0 0 3.6 61
09:00 0 J/kg 2.7 K 0 % 0 % 0 % 0 m²/s² 0 0 3.24 61
10:00 0 J/kg 1.6 K 0 % 0 % 0 % 0 m²/s² 0 0 1.93 61
11:00 26 J/kg 0.5 K 0 % 0 % 0 % 0 m²/s² 0 0 0.71 3
12:00 172 J/kg -0.9 K 0 % 0 % 0 % 0 m²/s² 0 0 -0.03 3
13:00 400 J/kg -2.2 K 0 % 0 % 0 % 0 m²/s² 0 0 -0.85 3
14:00 555 J/kg -2.8 K 0 % 0 % 0 % 0 m²/s² 0 0 -1.39 3
15:00 676 J/kg -3.7 K 0 % 0 % 0 % 0 m²/s² 0 0 -2.44 3
16:00 689 J/kg -3.4 K 0 % 0 % 0 % 0 m²/s² 0 0 -1.99 3
17:00 475 J/kg -2.4 K 0 % 0 % 0 % 0 m²/s² 0 0 -0.15 61
18:00 245 J/kg -1.1 K 0 % 0 % 0 % 0 m²/s² 0 0 0.82 2
19:00 185 J/kg -1.2 K 0 % 0 % 0 % 0 m²/s² 0 0 0.6 3
20:00 13 J/kg -1.0 K 0 % 0 % 0 % 0 m²/s² 0 0 1.94 3
21:00 48 J/kg -1.3 K 0 % 0 % 0 % 0 m²/s² 0 0 1.82 2
22:00 40 J/kg -1.2 K 0 % 0 % 0 % 0 m²/s² 0 0 1.5 3
23:00 65 J/kg -0.9 K 0 % 0 % 0 % 0 m²/s² 0 0 1.44 3
 07:49     20:28    Daglengte: 12:39 Woensdag 01 Apr
00:00 76 J/kg -0.9 K 0 % 0 % 0 % 0 m²/s² 0 0 0.84 3
01:00 109 J/kg -0.4 K 0 % 0 % 0 % 0 m²/s² 0 0 0.41 3
02:00 60 J/kg -0.6 K 0 % 0 % 0 % 0 m²/s² 0 0 -0.39 3
03:00 78 J/kg -0.6 K 0 % 0 % 0 % 0 m²/s² 0 0 0.12 45
04:00 50 J/kg -0.1 K 0 % 0 % 0 % 0 m²/s² 0 0 0.86 45
05:00 89 J/kg -0.4 K 0 % 0 % 0 % 0 m²/s² 0 0 0.95 45
06:00 201 J/kg -1.1 K 0 % 0 % 0 % 0 m²/s² 0 0 0.88 80
07:00 412 J/kg -2.3 K 0 % 0 % 0 % 0 m²/s² 0 0 -0.44 63
08:00 531 J/kg -2.3 K 0 % 0 % 0 % 0 m²/s² 0 0 -1.46 63
09:00 465 J/kg -2.2 K 0 % 0 % 0 % 0 m²/s² 0 0 -1.45 95
10:00 417 J/kg -1.7 K 0 % 0 % 0 % 0 m²/s² 0 0 -1.37 80
11:00 273 J/kg -1.4 K 0 % 0 % 0 % 0 m²/s² 0 0 -1.1 80
12:00 196 J/kg -0.9 K 0 % 0 % 0 % 0 m²/s² 0 0 -0.57 3
13:00 191 J/kg -0.8 K 0 % 0 % 0 % 0 m²/s² 0 0 2.59 80
14:00 245 J/kg -1.2 K 0 % 0 % 0 % 0 m²/s² 0 0 3.45 80
15:00 240 J/kg -1.3 K 0 % 0 % 0 % 0 m²/s² 0 0 3.98 80
16:00 272 J/kg -1.3 K 0 % 0 % 0 % 0 m²/s² 0 0 4.97 1
17:00 256 J/kg -1.2 K 0 % 0 % 0 % 0 m²/s² 0 0 6.18 1
18:00 272 J/kg -1.5 K 0 % 0 % 0 % 0 m²/s² 0 0 6.18 2
19:00 225 J/kg -1.4 K 0 % 0 % 0 % 0 m²/s² 0 0 4.69 2
20:00 54 J/kg -0.6 K 0 % 0 % 0 % 0 m²/s² 0 0 4.41 80
21:00 127 J/kg -0.7 K 0 % 0 % 0 % 0 m²/s² 0 0 3.95 95
22:00 230 J/kg -1.3 K 0 % 0 % 0 % 0 m²/s² 0 0 1.76 80
23:00 284 J/kg -1.5 K 0 % 0 % 0 % 0 m²/s² 0 0 0.93 95
 07:47     20:29    Daglengte: 12:42 Donderdag 02 Apr
00:00 379 J/kg -2.2 K 0 % 0 % 0 % 0 m²/s² 0 0 0.17 80
01:00 444 J/kg -2.6 K 0 % 0 % 0 % 0 m²/s² 0 0 -0.59 2
02:00 328 J/kg -2.3 K 0 % 0 % 0 % 0 m²/s² 0 0 -0.53 3
03:00 198 J/kg -1.6 K 0 % 0 % 0 % 0 m²/s² 0 0 0.05
04:00 0 J/kg -0.8 K 0 % 0 % 0 % 0 m²/s² 0 0 0.13
05:00 0 J/kg 0.3 K 0 % 0 % 0 % 0 m²/s² 0 0 1.74
Temp Baro Wind Neerslag
  EWN Forecast EWN WRFDA DWD ICON FMI HIRLAM MET Norway GFS
 07:52     20:26    Daglengte: 12:34 Vandaag
08:00 9.8° 1011.9 hPa 1.3 m/s 0.0 mm 13.2° 1010.5 hPa 1.6 m/s 0.0 mm 10.2° 1012.0 hPa 0.7 m/s 0.0 mm 10.4° 1012.0 hPa 1.4 m/s 0.0 mm 8.2° 1012.1 hPa 1.4 m/s 11.6° 1011.9 hPa 1.0 m/s
11:00 13.9° 1012.5 hPa 1.4 m/s 0.0 mm 16.1° 1010.9 hPa 2.9 m/s 0.0 mm 14.2° 1012.7 hPa 0.4 m/s 0.0 mm 14.9° 1011.8 hPa 0.8 m/s 0.0 mm 13.3° 1013.1 hPa 1.9 m/s 16.8° 1012.6 hPa 3.8 m/s
14:00 17.4° 1011.5 hPa 5.1 m/s 0.0 mm 18.1° 1009.9 hPa 7.9 m/s 0.0 mm 16.8° 1011.5 hPa 4.2 m/s 0.0 mm 19.3° 1010.7 hPa 5.0 m/s 0.0 mm 16.7° 1011.9 hPa 5.2 m/s 18.0° 1011.6 hPa 6.1 m/s
17:00 14.6° 1010.2 hPa 6.8 m/s 0.0 mm 14.0° 1008.8 hPa 11.1 m/s 0.0 mm 14.2° 1010.4 hPa 6.3 m/s 0.2 mm 15.3° 1009.7 hPa 8.3 m/s 0.0 mm 14.3° 1010.7 hPa 5.2 m/s 16.9° 1010.0 hPa 8.2 m/s
20:00 12.2° 1010.6 hPa 6.0 m/s 0.0 mm 12.3° 1008.5 hPa 10.0 m/s 0.0 mm 12.1° 1011.0 hPa 5.4 m/s 0.0 mm 13.3° 1010.3 hPa 7.6 m/s 0.0 mm 10.9° 1010.8 hPa 4.6 m/s 12.6° 1009.6 hPa 9.6 m/s
23:00 11.4° 1011.3 hPa 5.4 m/s 0.0 mm 11.7° 1010.1 hPa 8.6 m/s 0.0 mm 11.4° 1011.1 hPa 5.2 m/s 0.1 mm 12.2° 1011.3 hPa 7.2 m/s 0.0 mm 10.1° 1011.4 hPa 4.1 m/s 11.4° 1010.8 hPa 8.4 m/s
 07:50     20:27    Daglengte: 12:37 Morgen
02:00 11.3° 1010.3 hPa 4.2 m/s 0.2 mm 11.8° 1009.2 hPa 7.7 m/s 0.1 mm 10.9° 1010.4 hPa 3.5 m/s 1.5 mm 12.8° 1010.5 hPa 5.9 m/s 0.0 mm 10.0° 1010.4 hPa 2.6 m/s 11.5° 1010.0 hPa 7.4 m/s
05:00 11.3° 1008.7 hPa 3.1 m/s 1.5 mm 11.3° 1007.7 hPa 5.3 m/s 0.4 mm 11.0° 1009.1 hPa 2.7 m/s 2.4 mm 13.5° 1008.8 hPa 4.0 m/s 0.0 mm 10.1° 1008.7 hPa 0.8 m/s 11.5° 1008.7 hPa 5.5 m/s
08:00 11.1° 1008.3 hPa 1.8 m/s 2.5 mm 11.7° 1007.4 hPa 1.8 m/s 0.5 mm 10.8° 1009.0 hPa 1.6 m/s 4.6 mm 13.1° 1008.4 hPa 3.4 m/s 0.0 mm 10.5° 1007.8 hPa 1.7 m/s 10.9° 1008.0 hPa 0.7 m/s
11:00 12.9° 1009.1 hPa 3.3 m/s 1.2 mm 14.4° 1008.8 hPa 4.1 m/s 0.5 mm 12.5° 1009.9 hPa 2.5 m/s 2.5 mm 15.0° 1008.9 hPa 4.6 m/s 0.0 mm 11.8° 1008.8 hPa 3.4 m/s 12.6° 1009.3 hPa 2.0 m/s
14:00 15.7° 1008.3 hPa 3.6 m/s 0.0 mm 17.6° 1008.1 hPa 6.2 m/s 1.0 mm 14.6° 1009.1 hPa 2.5 m/s 0.0 mm 17.1° 1007.6 hPa 4.3 m/s 0.0 mm 13.5° 1008.1 hPa 3.6 m/s 13.9° 1009.6 hPa 1.6 m/s
17:00 16.1° 1007.1 hPa 2.5 m/s 0.2 mm 19.8° 1006.6 hPa 5.5 m/s 1.6 mm 13.9° 1008.1 hPa 3.5 m/s 0.1 mm 16.8° 1006.5 hPa 2.5 m/s 0.0 mm 14.8° 1007.0 hPa 2.1 m/s 16.6° 1008.7 hPa 1.2 m/s
20:00 15.3° 1008.1 hPa 1.8 m/s 0.3 mm 18.2° 1007.2 hPa 5.8 m/s 1.9 mm 14.1° 1009.4 hPa 1.5 m/s 0.0 mm 16.3° 1007.2 hPa 1.1 m/s 0.0 mm 14.0° 1008.0 hPa 1.8 m/s 15.6° 1009.0 hPa 0.6 m/s
23:00 12.6° 1010.6 hPa 1.4 m/s 0.0 mm 15.1° 1010.4 hPa 3.6 m/s 2.0 mm 12.0° 1011.0 hPa 0.6 m/s 0.0 mm 12.4° 1010.3 hPa 1.3 m/s 12.3° 1011.3 hPa 1.3 m/s
 07:49     20:28    Daglengte: 12:39 Woensdag 01 Apr
02:00 12.3° 1010.8 hPa 1.2 m/s 0.0 mm 14.1° 1010.8 hPa 3.5 m/s 2.2 mm 11.3° 1010.9 hPa 0.4 m/s 0.0 mm 12.3° 1010.2 hPa 1.2 m/s 12.7° 1011.6 hPa 1.5 m/s
05:00 12.2° 1010.2 hPa 1.6 m/s 0.0 mm 13.5° 1010.5 hPa 3.4 m/s 2.7 mm 11.2° 1010.2 hPa 0.7 m/s 0.0 mm 12.2° 1009.4 hPa 1.7 m/s 12.4° 1010.8 hPa 1.1 m/s
08:00 12.0° 1011.0 hPa 1.0 m/s 4.6 mm 13.9° 1011.2 hPa 1.0 m/s 3.2 mm 11.2° 1011.3 hPa 0.4 m/s 9.3 mm 11.8° 1009.7 hPa 1.6 m/s 13.0° 1011.7 hPa 2.0 m/s
11:00 13.6° 1011.7 hPa 1.7 m/s 2.7 mm 14.9° 1011.5 hPa 3.3 m/s 4.4 mm 12.9° 1012.9 hPa 0.8 m/s 3.9 mm 13.6° 1011.5 hPa 1.7 m/s 11.8° 1012.6 hPa 2.2 m/s
14:00 17.6° 1011.2 hPa 1.4 m/s 1.8 mm 20.1° 1011.4 hPa 2.6 m/s 5.3 mm 16.1° 1012.5 hPa 0.4 m/s 0.9 mm 17.6° 1010.7 hPa 1.4 m/s 17.6° 1012.9 hPa 1.4 m/s
17:00 19.2° 1009.2 hPa 1.1 m/s 0.5 mm 21.4° 1009.2 hPa 3.7 m/s 5.3 mm 18.4° 1010.8 hPa 1.3 m/s 0.3 mm 19.1° 1008.8 hPa 0.4 m/s 19.6° 1010.9 hPa 2.1 m/s
20:00 15.9° 1009.6 hPa 2.6 m/s 2.1 mm 19.1° 1009.0 hPa 4.4 m/s 5.3 mm 15.0° 1011.9 hPa 1.5 m/s 0.5 mm 15.7° 1009.2 hPa 2.6 m/s 16.3° 1011.0 hPa 3.3 m/s
23:00 12.8° 1011.2 hPa 2.0 m/s 4.5 mm 14.1° 1011.8 hPa 4.9 m/s 5.3 mm 12.8° 1013.4 hPa 0.5 m/s 4.1 mm 12.6° 1010.2 hPa 2.0 m/s 13.7° 1013.5 hPa 1.0 m/s
 07:47     20:29    Daglengte: 12:42 Donderdag 02 Apr
02:00 10.7° 1011.7 hPa 1.5 m/s 3.4 mm 12.9° 1012.2 hPa 3.5 m/s 5.3 mm 11.5° 1012.3 hPa 1.0 m/s 2.4 mm 9.5° 1011.2 hPa 1.3 m/s 13.8° 1013.4 hPa 1.5 m/s
05:00 9.2° 1011.0 hPa 1.7 m/s 5.5 mm 13.2° 1010.8 hPa 1.8 m/s 5.5 mm 8.6° 1011.0 hPa 1.7 m/s 11.8° 1012.3 hPa 0.8 m/s
08:00 8.2° 1010.9 hPa 2.3 m/s 5.7 mm 11.6° 1011.1 hPa 3.3 m/s 5.7 mm 7.6° 1010.9 hPa 2.1 m/s 13.1° 1012.7 hPa 1.0 m/s
11:00 13.7° 1010.8 hPa 1.1 m/s 15.6 mm 13.5° 1010.5 hPa 1.2 m/s 15.0° 1013.6 hPa 0.9 m/s 15.6 mm
14:00 16.5° 1010.5 hPa 0.9 m/s 17.1 mm 16.5° 1010.3 hPa 0.7 m/s 16.1° 1013.2 hPa 2.5 m/s 17.1 mm
17:00 14.9° 1010.4 hPa 1.2 m/s 18.0 mm 14.8° 1010.3 hPa 0.9 m/s 15.9° 1011.4 hPa 4.0 m/s 18.0 mm
20:00 13.2° 1010.5 hPa 1.3 m/s 18.3 mm 13.1° 1010.4 hPa 1.1 m/s 14.1° 1011.9 hPa 4.1 m/s 18.3 mm
23:00 11.7° 1011.6 hPa 1.1 m/s 18.3 mm 11.6° 1011.3 hPa 1.1 m/s 11.8° 1013.8 hPa 2.1 m/s 18.3 mm
 07:46     20:29    Daglengte: 12:43 Vrijdag 03 Apr
02:00 10.2° 1012.4 hPa 1.0 m/s 18.3 mm 10.2° 1012.3 hPa 1.0 m/s 10.6° 1013.4 hPa 1.6 m/s 18.3 mm
05:00 8.9° 1013.0 hPa 1.7 m/s 18.3 mm 8.8° 1013.1 hPa 1.8 m/s 9.7° 1012.3 hPa 0.6 m/s 18.3 mm
08:00 7.8° 1013.8 hPa 2.5 m/s 18.3 mm 7.5° 1013.9 hPa 2.6 m/s 10.6° 1012.7 hPa 1.0 m/s 18.3 mm
11:00 12.3° 1014.5 hPa 1.9 m/s 19.1 mm 12.2° 1014.6 hPa 1.9 m/s 14.3° 1013.1 hPa 2.5 m/s 19.1 mm
14:00 16.8° 1015.1 hPa 1.4 m/s 20.1 mm 16.8° 1015.3 hPa 1.1 m/s 16.8° 1013.4 hPa 4.8 m/s 20.1 mm
17:00 15.5° 1015.4 hPa 2.0 m/s 20.8 mm 15.4° 1015.6 hPa 1.7 m/s 16.5° 1012.2 hPa 6.3 m/s 20.8 mm
20:00 14.1° 1015.7 hPa 2.4 m/s 21.0 mm 14.1° 1016.0 hPa 2.2 m/s 13.8° 1012.7 hPa 4.9 m/s 21.0 mm
23:00 11.2° 1016.6 hPa 1.9 m/s 21.0 mm 11.1° 1016.8 hPa 1.9 m/s 11.6° 1014.4 hPa 1.9 m/s 21.0 mm
 07:44     20:30    Daglengte: 12:46 Zaterdag 04 Apr
02:00 8.4° 1017.4 hPa 1.4 m/s 21.0 mm 8.2° 1017.6 hPa 1.5 m/s 11.1° 1014.6 hPa 0.4 m/s 21.0 mm
05:00 7.9° 1017.2 hPa 1.5 m/s 21.0 mm 7.6° 1017.5 hPa 1.6 m/s 11.1° 1013.3 hPa 1.1 m/s 21.0 mm
08:00 7.4° 1017.0 hPa 1.6 m/s 21.0 mm 7.0° 1017.4 hPa 1.6 m/s 11.3° 1013.1 hPa 1.6 m/s 21.0 mm
11:00 12.1° 1016.7 hPa 3.0 m/s 21.2 mm 11.9° 1017.1 hPa 3.0 m/s 13.6° 1012.5 hPa 2.5 m/s 21.2 mm
14:00 16.7° 1016.4 hPa 4.6 m/s 22.2 mm 16.9° 1016.8 hPa 4.5 m/s 14.4° 1012.2 hPa 6.0 m/s 22.2 mm
17:00 15.3° 1016.2 hPa 3.8 m/s 22.9 mm 15.4° 1016.8 hPa 3.6 m/s 13.7° 1010.2 hPa 5.6 m/s 22.9 mm
20:00 13.8° 1016.1 hPa 3.0 m/s 25.9 mm 13.9° 1016.7 hPa 2.7 m/s 12.4° 1009.6 hPa 6.4 m/s 25.9 mm
23:00 12.3° 1016.9 hPa 2.3 m/s 28.8 mm 12.3° 1017.5 hPa 1.9 m/s 12.4° 1010.6 hPa 6.1 m/s 28.8 mm
 07:43     20:31    Daglengte: 12:48 Zondag 05 Apr
02:00 10.8° 1017.6 hPa 1.2 m/s 31.2 mm 10.7° 1018.3 hPa 1.1 m/s 12.3° 1010.3 hPa 2.7 m/s 31.2 mm
05:00 10.5° 1017.4 hPa 1.4 m/s 33.9 mm 10.3° 1018.2 hPa 1.1 m/s 12.3° 1008.4 hPa 3.8 m/s 33.9 mm
08:00 10.2° 1017.3 hPa 1.7 m/s 39.3 mm 9.9° 1018.1 hPa 1.2 m/s 13.0° 1008.3 hPa 6.6 m/s 39.3 mm
11:00 13.2° 1017.8 hPa 2.6 m/s 40.5 mm 13.1° 1018.7 hPa 2.2 m/s 14.3° 1008.7 hPa 7.0 m/s 40.5 mm
14:00 16.5° 1018.4 hPa 3.4 m/s 40.5 mm 16.3° 1019.2 hPa 3.3 m/s 18.4° 1009.3 hPa 5.0 m/s 40.5 mm
17:00 15.4° 1018.2 hPa 2.9 m/s 40.5 mm 15.2° 1019.0 hPa 2.8 m/s 17.6° 1009.0 hPa 4.6 m/s 40.5 mm
20:00 14.4° 1018.0 hPa 2.4 m/s 40.5 mm 14.2° 1018.8 hPa 2.2 m/s 16.3° 1009.8 hPa 5.2 m/s 40.5 mm
23:00 11.9° 1019.1 hPa 2.0 m/s 41.5 mm 11.6° 1019.8 hPa 1.9 m/s 14.5° 1012.3 hPa 3.4 m/s 41.5 mm
 07:41     20:32    Daglengte: 12:51 Maandag 06 Apr
02:00 9.5° 1020.1 hPa 1.8 m/s 42.4 mm 9.1° 1020.7 hPa 1.6 m/s 14.1° 1013.3 hPa 4.3 m/s 42.4 mm
05:00 8.7° 1020.3 hPa 1.9 m/s 42.4 mm 8.2° 1020.9 hPa 1.8 m/s 14.3° 1013.2 hPa 3.3 m/s 42.4 mm
08:00 7.9° 1020.5 hPa 2.1 m/s 42.4 mm 7.3° 1021.1 hPa 1.9 m/s 14.3° 1014.4 hPa 4.2 m/s 42.4 mm
14:00 19.6° 1020.9 hPa 0.6 m/s 42.4 mm 19.8° 1021.3 hPa 0.3 m/s 18.0° 1016.8 hPa 4.3 m/s 42.4 mm
20:00 16.2° 1020.3 hPa 2.3 m/s 42.4 mm 16.2° 1020.5 hPa 2.3 m/s 15.9° 1018.1 hPa 2.4 m/s 42.4 mm
 07:40     20:33    Daglengte: 12:53 Dinsdag 07 Apr
02:00 9.9° 1022.2 hPa 1.1 m/s 42.5 mm 9.5° 1022.3 hPa 1.0 m/s 14.7° 1021.1 hPa 2.4 m/s 42.5 mm
08:00 9.3° 1021.8 hPa 1.6 m/s 42.5 mm 8.9° 1021.9 hPa 1.6 m/s 13.8° 1021.0 hPa 1.2 m/s 42.5 mm
14:00 21.0° 1021.9 hPa 2.4 m/s 43.1 mm 21.3° 1021.8 hPa 2.0 m/s 18.2° 1022.6 hPa 7.1 m/s 43.1 mm
20:00 16.9° 1020.0 hPa 2.1 m/s 43.2 mm 17.0° 1019.8 hPa 1.8 m/s 15.9° 1022.0 hPa 5.8 m/s 43.2 mm
 07:38     20:34    Daglengte: 12:56 Woensdag 08 Apr
02:00 10.4° 1021.4 hPa 0.7 m/s 43.4 mm 10.2° 1021.1 hPa 0.6 m/s 13.0° 1025.0 hPa 2.0 m/s 43.4 mm
08:00 9.9° 1020.0 hPa 2.0 m/s 43.5 mm 9.8° 1019.6 hPa 2.1 m/s 11.5° 1024.3 hPa 1.2 m/s 43.5 mm
14:00 18.3° 1024.7 hPa 5.8 m/s 43.9 mm 18.3° 1024.7 hPa 5.8 m/s 43.9 mm
20:00 15.8° 1023.6 hPa 4.3 m/s 44.0 mm 15.8° 1023.6 hPa 4.3 m/s 44.0 mm
 07:37     20:35    Daglengte: 12:58 Donderdag 09 Apr
02:00 16.1° 1020.9 hPa 0.8 m/s 0.0 mm
08:00 15.1° 1019.5 hPa 0.6 m/s 0.0 mm
14:00 23.0° 1019.8 hPa 1.2 m/s 0.0 mm
20:00 20.8° 1018.0 hPa 0.9 m/s 0.3 mm
 07:36     20:36    Daglengte: 13:00 Vrijdag 10 Apr
02:00 16.8° 1019.9 hPa 1.7 m/s 0.3 mm
08:00 15.0° 1020.0 hPa 2.1 m/s 0.3 mm
14:00 22.2° 1020.8 hPa 1.0 m/s 0.1 mm
20:00 20.1° 1019.0 hPa 1.7 m/s 0.5 mm
 07:34     20:37    Daglengte: 13:03 Zaterdag 11 Apr
02:00 15.5° 1020.5 hPa 0.9 m/s 0.0 mm
08:00 14.2° 1019.5 hPa 1.8 m/s 0.0 mm
14:00 22.1° 1019.7 hPa 0.9 m/s 0.0 mm
20:00 19.8° 1017.6 hPa 2.2 m/s 0.1 mm
 07:33     20:38    Daglengte: 13:05 Zondag 12 Apr
02:00 15.3° 1018.3 hPa 0.5 m/s 0.0 mm
08:00 13.9° 1016.9 hPa 1.6 m/s 0.4 mm
14:00 21.4° 1016.4 hPa 2.0 m/s 0.3 mm
20:00 19.5° 1014.6 hPa 2.3 m/s 0.1 mm
 07:31     20:39    Daglengte: 13:08 Maandag 13 Apr
02:00 15.3° 1015.9 hPa 0.5 m/s 0.0 mm
08:00 14.1° 1015.2 hPa 1.2 m/s 0.0 mm
14:00 22.2° 1015.3 hPa 0.8 m/s 0.0 mm
20:00 20.2° 1013.6 hPa 1.8 m/s 0.3 mm
 07:30     20:40    Daglengte: 13:10 Dinsdag 14 Apr
02:00 15.9° 1014.6 hPa 1.4 m/s 0.2 mm
FMI Hirlam - 7.5 km EWN WRFDA - 12 km DWD ICON - 7 km GFS - 25 km Basiskaart






























































Updatetijd (Europe/Amsterdam) Resolutie Lengte Stap
FMI Hirlam 01:45, 07:45, 13:45, 19:45 7.5 km 49h 1h
EWN WRFDA 03:30, 09:30, 15:30, 21:30 12 km 73h 1h
DWD ICON 23:45, 05:45, 11:45, 17:45 7 km 75h 1h
GFS 01:45, 07:45, 13:45, 19:45 25 km 237h 3h
30+ mm
25-30 mm
20-25 mm
15-20 mm
10-15 mm
6-10 mm
4-6 mm
2-4 mm
1-2 mm
0.5-1 mm
0.2-0.5 mm
0.1-0.2 mm
30+ mm
25-30 mm
20-25 mm
15-20 mm
10-15 mm
6-10 mm
4-6 mm
2-4 mm
1-2 mm
0.5-1 mm
0.2-0.5 mm
0.1-0.2 mm
Sneeuwval
Natte sneeuw
Hagel
Vorst
30+ mm
25-30 mm
20-25 mm
15-20 mm
10-15 mm
6-10 mm
4-6 mm
2-4 mm
1-2 mm
0.5-1 mm
0.2-0.5 mm
0.1-0.2 mm
Sneeuwval
Natte sneeuw
Hagel
Vorst
Onweer
50 mm
40 mm
30 mm
26 mm
22 mm
18 mm
14 mm
10 mm
9 mm
8 mm
7 mm
6 mm
5 mm
4.5 mm
4 mm
3.5 mm
3 mm
2.5 mm
2 mm
1.5 mm
1 mm
0.8 mm
0.6 mm
0.4 mm
0.2 mm
0.05 mm
35°
30°
25°
20°
15°
10°
-5°
-10°
-15°
-20°
-25°
-30°
-35°
33> m/s
29 m/s
25 m/s
21 m/s
17 m/s
14 m/s
11 m/s
8 m/s
5 m/s
3 m/s
0 m/s
2600 J/kg
2400 J/kg
2200 J/kg
2000 J/kg
1800 J/kg
1600 J/kg
1400 J/kg
1200 J/kg
1000 J/kg
800 J/kg
600 J/kg
400 J/kg
200 J/kg
70 dBZ
65 dBZ
60 dBZ
55 dBZ
50 dBZ
45 dBZ
40 dBZ
35 dBZ
30 dBZ
25 dBZ
20 dBZ
15 dBZ
10 dBZ
5 dBZ
-1 K
-2 K
-3 K
-4 K
-5 K
-6 K
-7 K
-8 K
-9 K
950 m²/s²
900 m²/s²
850 m²/s²
800 m²/s²
750 m²/s²
700 m²/s²
650 m²/s²
600 m²/s²
550 m²/s²
500 m²/s²
450 m²/s²
400 m²/s²
350 m²/s²
300 m²/s²
250 m²/s²
200 m²/s²
150 m²/s²
100 m²/s²
46 m/s
44 m/s
42 m/s
40 m/s
38 m/s
36 m/s
34 m/s
32 m/s
30 m/s
28 m/s
26 m/s
24 m/s
22 m/s
20 m/s
16 m/s
12 m/s
8 m/s
4 m/s
30 m/s
28 m/s
26 m/s
24 m/s
22 m/s
20 m/s
18 m/s
16 m/s
14 m/s
12 m/s
10 m/s
8 m/s
6 m/s
4 m/s
2 m/s
3.0
2.8
2.6
2.4
2.2
2.0
1.8
1.6
1.4
1.2
1.0
0.8
0.6
0.4
0.2
15
14
13
12
11
10
9
8
7
6
5
4
3
2
1
90%
80%
70%
60%
50%
40%
30%
20%
10%
42
40
38
36
34
32
30
28
26
24
22
20
18
16
14
12
90+ cm
80-90 cm
70-80 cm
60-70 cm
50-60 cm
40-50 cm
30-40 cm
20-30 cm
10-20 cm
1-10 cm
Sneeuwval
Natte sneeuw
Regen
>120 mm
115 mm
110 mm
105 mm
100 mm
95 mm
90 mm
85 mm
80 mm
75 mm
70 mm
65 mm
60 mm
55 mm
50 mm
45 mm
45 mm
40 mm
35 mm
30 mm
25 mm
20 mm
15 mm
10 mm
5 mm
0.1 mm
960 hPa
880 hPa
800 hPa
720 hPa
640 hPa
560 hPa
584 gpdm
568 gpdm
552 gpdm
536 gpdm
520 gpdm
504 gpdm
488 gpdm
Extreem zwaar Noodweer Kans op onweer
15% 15% 5% 50% 15%

Dag




Kaart






35°
30°
25°
20°
15°
10°
-5°
-10°
-15°
-20°
-25°
-30°